Find Starlink 1702

NORAD ID: 46551 Int'l Des: 2020-070 Owner: SPXS Country: US Constellation: starlink decayed
LEOCIRCULAR

Re-entered — 6. März 2021

3D-Globus wird geladen...

About Starlink 1702

Starlink 1702 (NORAD 46551) is a starlink constellation satellite (v1.0) launched Oct 6, 2020 by SPXS of US. It re-entered the atmosphere on Mar 6, 2021. with a mass of 260.00 kg.

Höhenverlauf

Loading altitude history...

Zweizeiliger Elementsatz

1 46551U 20070V 21065.92065322 .62648057 12504-4 77239-3 0 9998
2 46551 52.9647 46.1242 0010495 137.6549 320.6458 16.48963428 24699
Epoch: 6. März 2021 • Age: 48661 hours

Aktueller Status

Position data unavailable
Startdatum 6. Okt. 2020
Alter 5.9 years
Verglühungsdatum 6. März 2021
Typ internet

Startgruppe

Falcon 9 • Launch 12 • 4 satellites

Technische Details

Klassifizierung Payload
Masse 260.00 kg
Trockenmasse 248.00 kg
Länge 0.20 m
Spannweite 9.00 m
Form ? Box + pan
Hersteller SPXS
Bus-Typ Starlink
Phasenstatus Reentered
Besitzer/Staat SPXS/US

Most Searched